Date String (YYYY-MM-DD hh:mm:ss) UTC,Instrument flags,absolute air pressure of the measurement (hPa),sample flow rate (lpm),inlet stack bypass flow (lpm),air temperature of the measurement (°C),ambient temperature measured by the external sensor (°C),aerosol sample conditioner tube jacket temperature (°C),OPC LED temperature (°C),internal box temperature (°C),relative humidity of the measurement (%),span deviation,mass concentration of particles derived from Lorenz-Mie calculation of OPC scattering (μg/m³),mass concentration of particles derived from Lorenz-Mie calculation of OPC scattering (μg/m³),mass concentration of particles derived from Lorenz-Mie calculation of OPC scattering (μg/m³)
DateTimeUTC,F1_M11,P_M11,Q1_M11,Q2_M11,T1_M11,T2_M11,T3_M11,T4_M11,T5_M11,U1_M11,ZSPAN_M11,X0_M11,X2_M11,X1_M11
2023-09-05 12:00:00,SystemResetWarning,0830.5,5.00,000.00,028.9,027.6,000.0,037.1,030.5,22.2,0000.0,0006.03,0001.41,0000.87
2023-09-05 12:01:00,SystemResetWarning,0830.5,5.00,000.00,028.9,027.5,000.0,037.1,030.4,22.2,0000.0,0005.64,0001.44,0000.87
2023-09-05 12:02:00,SystemResetWarning,0830.4,5.00,000.00,028.9,027.5,000.0,037.2,030.4,22.2,0000.0,0005.80,0001.43,0000.87
2023-09-05 12:03:00,SystemResetWarning,0830.4,5.00,000.00,028.9,027.5,000.0,037.2,030.4,22.1,0000.0,0005.80,0001.40,0000.86
2023-09-05 12:04:00,SystemResetWarning,0830.4,5.00,000.00,028.9,027.5,000.0,037.2,030.5,22.1,0000.0,0004.35,0001.45,0000.85
2023-09-05 12:05:00,SystemResetWarning,0830.5,5.00,000.00,028.9,027.5,000.0,037.2,030.4,22.0,0000.0,0004.19,0001.43,0000.86
2023-09-05 12:06:00,SystemResetWarning,0830.5,5.00,000.00,028.9,027.5,000.0,037.2,030.5,22.0,0000.0,0004.27,0001.41,0000.85
2023-09-05 12:07:00,SystemResetWarning,0830.5,5.00,000.00,028.9,027.5,000.0,037.2,030.4,22.0,0000.0,0004.97,0001.38,0000.85
2023-09-05 12:08:00,SystemResetWarning,0830.5,5.00,000.00,028.9,027.5,000.0,037.2,030.5,22.0,0000.0,0004.91,0001.38,0000.85
2023-09-05 12:09:00,SystemResetWarning,0830.5,5.00,000.00,028.9,027.5,000.0,037.2,030.5,22.1,0000.0,0004.72,0001.38,0000.86
2023-09-05 12:10:00,SystemResetWarning,0830.6,5.00,000.00,028.9,027.5,000.0,037.2,030.4,22.1,0000.0,0004.67,0001.35,0000.86
2023-09-05 12:11:00,SystemResetWarning,0830.7,5.00,000.00,028.9,027.5,000.0,037.2,030.5,22.1,0000.0,0004.66,0001.34,0000.86
2023-09-05 12:12:00,SystemResetWarning,0830.7,4.99,000.00,028.9,027.5,000.0,037.2,030.5,22.2,0000.0,0004.50,0001.28,0000.85
2023-09-05 12:13:00,SystemResetWarning,0830.7,5.00,000.00,028.9,027.5,000.0,037.2,030.5,22.2,0000.0,0004.44,0001.30,0000.86
2023-09-05 12:14:00,SystemResetWarning,0830.7,5.00,000.00,028.9,027.5,000.0,037.2,030.5,22.2,0000.0,0004.34,0001.31,0000.87
2023-09-05 12:15:00,SystemResetWarning,0830.6,5.00,000.00,028.9,027.5,000.0,037.3,030.5,22.1,0000.0,0004.37,0001.28,0000.87
2023-09-05 12:16:00,SystemResetWarning,0830.6,5.00,000.00,028.9,027.5,000.0,037.3,030.5,22.1,0000.0,0006.01,0001.30,0000.87
2023-09-05 12:17:00,SystemResetWarning,0830.5,4.99,000.00,028.9,027.5,000.0,037.3,030.5,22.1,0000.0,0006.20,0001.34,0000.88
2023-09-05 12:18:00,SystemResetWarning,0830.6,4.99,000.00,028.9,027.5,000.0,037.3,030.4,22.2,0000.0,0005.43,0001.34,0000.89
2023-09-05 12:19:00,SystemResetWarning,0830.6,4.99,000.00,028.9,027.5,000.0,037.3,030.5,22.2,0000.0,0004.78,0001.35,0000.90
2023-09-05 12:20:00,SystemResetWarning,0830.6,5.00,000.00,028.9,027.5,000.0,037.3,030.5,22.2,0000.0,0004.63,0001.36,0000.90
2023-09-05 12:21:00,SystemResetWarning,0830.7,5.00,000.00,028.9,027.5,000.0,037.3,030.4,22.1,0000.0,0004.77,0001.41,0000.90
2023-09-05 12:22:00,SystemResetWarning,0830.7,5.00,000.00,028.9,027.5,000.0,037.3,030.5,22.1,0000.0,0004.85,0001.42,0000.90
2023-09-05 12:23:00,SystemResetWarning,0830.8,5.00,000.00,028.9,027.5,000.0,037.3,030.5,22.2,0000.0,0005.31,0001.45,0000.90
2023-09-05 12:24:00,SystemResetWarning,0830.9,5.00,000.00,028.9,027.5,000.0,037.3,030.5,22.2,0000.0,0005.37,0001.47,0000.89
2023-09-05 12:25:00,SystemResetWarning,0830.9,5.01,000.00,028.9,027.5,000.0,037.3,030.4,22.1,0000.0,0005.43,0001.47,0000.89
2023-09-05 12:26:00,SystemResetWarning,0831.0,5.00,000.00,028.9,027.5,000.0,037.3,030.4,22.0,0000.0,0005.83,0001.50,0000.89
2023-09-05 12:27:00,SystemResetWarning,0830.9,5.01,000.00,028.9,027.5,000.0,037.3,030.5,22.0,0000.0,0005.44,0001.52,0000.89
2023-09-05 12:28:00,SystemResetWarning,0831.0,5.00,000.00,028.9,027.5,000.0,037.3,030.4,21.9,0000.0,0005.18,0001.54,0000.89
2023-09-05 12:29:00,SystemResetWarning,0831.1,5.00,000.00,028.9,027.5,000.0,037.3,030.4,21.9,0000.0,0004.96,0001.51,0000.88
2023-09-05 12:30:00,SystemResetWarning,0831.1,5.01,000.00,028.9,027.5,000.0,037.3,030.4,22.0,0000.0,0004.98,0001.52,0000.88
2023-09-05 12:31:00,SystemResetWarning,0831.1,5.00,000.00,028.9,027.5,000.0,037.3,030.5,22.1,0000.0,0004.95,0001.51,0000.88
2023-09-05 12:32:00,SystemResetWarning,0831.1,5.00,000.00,028.9,027.5,000.0,037.3,030.4,22.1,0000.0,0004.93,0001.50,0000.88
2023-09-05 12:33:00,SystemResetWarning,0831.1,4.99,000.00,028.9,027.5,000.0,037.3,030.4,22.1,0000.0,0004.78,0001.48,0000.87
2023-09-05 12:34:00,SystemResetWarning,0831.1,5.00,000.00,028.9,027.5,000.0,037.3,030.4,22.1,0000.0,0004.36,0001.45,0000.87
2023-09-05 12:35:00,SystemResetWarning,0831.2,5.00,000.00,028.9,027.5,000.0,037.3,030.5,22.1,0000.0,0004.37,0001.42,0000.87
2023-09-05 12:36:00,SystemResetWarning,0831.2,4.99,000.00,028.9,027.5,000.0,037.3,030.4,22.0,0000.0,0004.32,0001.41,0000.87
2023-09-05 12:37:00,SystemResetWarning,0831.2,5.00,000.00,028.9,027.5,000.0,037.3,030.4,22.0,0000.0,0003.84,0001.37,0000.86
2023-09-05 12:38:00,SystemResetWarning,0831.2,5.00,000.00,028.9,027.5,000.0,037.3,030.4,22.0,0000.0,0002.57,0001.34,0000.86
2023-09-05 12:39:00,SystemResetWarning,0831.2,5.01,000.00,028.9,027.5,000.0,037.3,030.4,21.9,0000.0,0002.78,0001.30,0000.86
2023-09-05 12:40:00,SystemResetWarning,0831.2,5.00,000.00,028.9,027.5,000.0,037.3,030.4,21.9,0000.0,0004.13,0001.31,0000.86
2023-09-05 12:41:00,SystemResetWarning,0831.2,5.00,000.00,028.9,027.5,000.0,037.3,030.4,21.9,0000.0,0004.39,0001.29,0000.85
2023-09-05 12:42:00,SystemResetWarning,0831.3,5.01,000.00,028.9,027.5,000.0,037.3,030.4,22.0,0000.0,0004.35,0001.26,0000.84
2023-09-05 12:43:00,SystemResetWarning,0831.3,5.00,000.00,028.9,027.4,000.0,037.3,030.4,21.9,0000.0,0004.20,0001.21,0000.85
2023-09-05 12:44:00,SystemResetWarning,0831.3,5.00,000.00,028.9,027.4,000.0,037.3,030.4,21.8,0000.0,0004.28,0001.22,0000.85
2023-09-05 12:45:00,SystemResetWarning,0831.3,5.00,000.00,028.9,027.4,000.0,037.3,030.4,21.9,0000.0,0004.28,0001.23,0000.85
2023-09-05 12:46:00,SystemResetWarning,0831.3,4.99,000.00,028.9,027.4,000.0,037.3,030.4,21.9,0000.0,0004.20,0001.24,0000.85
2023-09-05 12:47:00,SystemResetWarning,0831.3,5.00,000.00,028.9,027.5,000.0,037.3,030.4,21.9,0000.0,0004.20,0001.26,0000.85
2023-09-05 12:48:00,SystemResetWarning,0831.3,4.99,000.00,028.9,027.5,000.0,037.3,030.4,21.9,0000.0,0004.23,0001.30,0000.85
2023-09-05 12:49:00,SystemResetWarning,0831.4,5.00,000.00,028.9,027.5,000.0,037.3,030.4,22.0,0000.0,0004.36,0001.32,0000.85
2023-09-05 12:50:00,SystemResetWarning,0831.3,5.00,000.00,028.9,027.5,000.0,037.3,030.4,21.9,0000.0,0004.09,0001.31,0000.85
2023-09-05 12:51:00,SystemResetWarning,0831.3,5.00,000.00,028.9,027.5,000.0,037.3,030.4,21.9,0000.0,0002.79,0001.32,0000.86
2023-09-05 12:52:00,SystemResetWarning,0831.3,5.00,000.00,028.9,027.5,000.0,037.3,030.4,22.0,0000.0,0002.52,0001.32,0000.86
2023-09-05 12:53:00,SystemResetWarning,0831.3,5.00,000.00,028.9,027.5,000.0,037.3,030.4,22.0,0000.0,0002.71,0001.39,0000.86
2023-09-05 12:54:00,SystemResetWarning,0831.3,5.00,000.00,028.9,027.5,000.0,037.3,030.4,22.0,0000.0,0002.89,0001.43,0000.87
2023-09-05 12:55:00,SystemResetWarning,0831.4,5.00,000.00,028.9,027.5,000.0,037.3,030.5,21.9,0000.0,0002.96,0001.48,0000.86
2023-09-05 12:56:00,SystemResetWarning,0831.4,5.00,000.00,028.9,027.5,000.0,037.3,030.5,21.9,0000.0,0002.92,0001.48,0000.87
2023-09-05 12:57:00,SystemResetWarning,0831.4,5.00,000.00,028.9,027.5,000.0,037.3,030.5,21.9,0000.0,0002.83,0001.44,0000.88
2023-09-05 12:58:00,SystemResetWarning,0831.5,5.00,000.00,028.9,027.5,000.0,037.3,030.4,21.9,0000.0,0003.39,0001.43,0000.88
2023-09-05 12:59:00,SystemResetWarning,0831.5,4.99,000.00,028.9,027.5,000.0,037.3,030.4,21.8,0000.0,0003.51,0001.41,0000.89
